Hourly Data Report for February 07, 2020

All times are specified in Local Standard Time (LST). Add 1 hour to adjust for Daylight Saving Time where and when it is observed.

OTTAWA INTL A
ONTARIO
Current Station Operator: NAVCAN

45°19'00.000" N
75°40'00.000" W
114.90 m
6106001
71628
YOW

Download Data

Hourly Data (February 2020)
Hourly Data Report for February 7, 2020
TIME Temp Definition
°C
Dew Point Definition
°C
Rel Hum Definition
%
Wind Dir Definition
10's deg

Wind Spd Definition
km/h
Visibility Definition
km
Stn Press Definition
kPa
Hmdx Definition


Wind Chill Definition


Weather Definition


00:00 -5.5 -6.7 91 36 18 0.4 98.50   -12 Heavy Snow
01:00 -5.5 -6.6 92 1 20 1.0 98.41   -12 Snow
02:00 -5.5 -6.6 92 2 19 0.8 98.38   -12 Moderate Snow
03:00 -5.7 -6.8 92 2 22 1.2 98.27   -13 Snow
04:00 -5.8 -7.0 91 1 20 1.0 98.17   -13 Snow
05:00 -5.8 -7.1 91 1 16 1.0 98.20   -12 Snow
06:00 -6.2 -7.5 90 1 24 1.2 98.11   -14 Snow
07:00 -6.5 -8.0 89 1 24 9.7 98.00   -14 Snow
08:00 -6.4 -8.5 85 2 25 12.9 97.90   -14 Snow
09:00 -6.1 -9.3 78 1 23 12.9 97.87   -13 Snow
10:00 -6.2 -9.9 75 35 27 16.1 97.75   -14 Cloudy
11:00 -6.8 -9.7 80 35 29 4.8 97.61   -15 Snow,Blowing Snow
12:00 -7.2 -9.6 83 34 31 1.6 97.64   -16 Snow,Blowing Snow
13:00 -7.7 -9.5 87 33 32 0.8 97.58   -17 Moderate Snow,Blowing Snow
14:00 -8.2 -10.1 87 32 36 0.8 97.58   -18 Moderate Snow,Blowing Snow
15:00 -8.6 -10.6 85 32 37 0.6 97.65   -19 Moderate Snow,Blowing Snow
16:00 -8.9 -11.6 81 32 33 4.0 97.86   -18 Snow,Blowing Snow
17:00 -9.3 -12.4 79 32 42 4.8 98.07   -20 Snow,Blowing Snow
18:00 -9.9 -12.4 82 31 36 6.4 98.30   -20 Snow,Blowing Snow
19:00 -10.4 -13.1 81 32 33 1.6 98.51   -20 Snow,Blowing Snow
20:00 -11.0 -16.0 67 33 35 24.1 98.70   -22 Blowing Snow
21:00 -12.6 -17.9 65 30 28 24.1 98.86   -23 Blowing Snow
22:00 -13.8 -19.0 65 30 27 24.1 99.05   -24 Mostly Cloudy
23:00 -14.1 -19.5 64 30 27 24.1 99.21   -24 Blowing Snow

Notes on Data Quality.

Legend

  • E = Estimated
  • M = Missing
  • NA = Not Available*
  • [empty] = Indicates an unobserved value
Date modified: